Location: Oshawa
(43.9000°N, 78.8670°W)
Time: 01:55:07
(UTC-04:00)

Cosmos 1707 Rocket - Visible Passes

Search period start: 02 May 2016 00:00
Search period end: 12 May 2016 00:00
Orbit: 607 x 631 km, 82.5° (Epoch: 01 May)

Date Brightness Start Highest point End Pass type
(mag) Time Alt. Az. Time Alt. Az. Time Alt. Az.
02 May 4.1 05:31:48 10° N 05:36:15 66° E 05:40:38 10° SSE visible
03 May 6.8 04:13:13 10° NE 04:15:10 13° ENE 04:17:05 10° E visible
04 May 6.3 04:29:18 10° NNE 04:32:46 21° ENE 04:36:11 10° ESE visible
05 May 5.2 04:46:05 10° N 04:50:15 37° ENE 04:54:21 10° SE visible
06 May 4.0 05:03:10 10° N 05:07:38 69° E 05:12:01 10° SSE visible
07 May 6.6 03:44:28 10° NE 03:46:34 13° ENE 03:48:39 10° E visible
07 May 3.6 05:20:30 10° NNW 05:24:55 64° W 05:29:16 10° S visible
08 May 6.0 04:00:39 10° NNE 04:04:10 22° ENE 04:07:38 10° ESE visible
09 May 5.0 04:17:27 10° N 04:21:38 39° ENE 04:25:46 10° SE visible
10 May 3.8 04:34:33 10° N 04:39:00 72° E 04:43:23 10° SSE visible
11 May 6.5 03:15:44 10° NE 03:17:58 14° ENE 03:20:11 10° E visible
11 May 3.6 04:51:54 10° NNW 04:56:17 61° W 05:00:36 10° S visible
